NOAA 16 DEB

Satellite information

Favourite Embed

Satellite Type and Status

DEBRISIN ORBIT

Key statistics

Satellite NOAA 16 DEB at a glance.

Uptime

9115

Days in orbit

Revolutions

≈ 14.4

Per day

Orbit

SSO

Sun Synchronous Orbit

Inclination

98.9

Latest

Satellite identification and parameters

Extended collection of information and parameters for NOAA 16 DEB.

Object identification

Identified? True

Debris? True

Object name: NOAA 16 DEB

International designator: 2000-055CQ

Object number (NORAD): 41157

Object ID (CCSDS): 41157

Country: UNITED STATES OF AMERICA (US)

Current information (Y/N): Y

RCS size: SMALL

Orbital parameters

Period: 99.918 minutes

Inclination: 98.9236 deg

SMA: 7132.712 km

Apoapsis: 771.801 km

Periapsis: 737.352 km

RAAN: 359.1432 deg

Eccentricy: 0.00241489

Argument of periapsis: 255.0871 deg

Mean anomaly: 104.7643 deg

Mean motion: 14.41188431 rev/day

Mean motion (dot): 0.00030058 rev/day2

B* drag term: 0.0092568772 1/REarth

Two-line elements (TLE)

Creation date: Sept. 2, 2025, 11:42 p.m.

Reference frame: TEME

Reference center: EARTH

Epoch: Sept. 2, 2025, 1:05 p.m. UTC

TLE line 0: 0 NOAA 16 DEB

TLE line 1: 1 41157U 00055CQ 25245.54558639 .00030058 00000-0 92569-2 0 9990

TLE line 2: 2 41157 98.9236 359.1432 0024149 255.0871 104.7643 14.41188431502975

Live tracking on map

Real-time ground track for satellite NOAA 16 DEB.

In-orbit conjunctions

A list of the most updated potential collisions computed for object NOAA 16 DEB.

Target Orbit TCA Probability of collision Miss distance Type
CZ-6A DEB LEO 2025-01-14 13:01:30 0.0001012715 217.0 (m) DEBRIS

Associated space launch

The NOAA K, L and M POES satellites begin the fifth generation of improved environmental monitoring in support of NOAA missions. The instrument payload has significant improvements and additions/deletions. The instrument changes have effected the spacecraft subsystems and data formats.

NOAA 16 DEB was lifted into orbit during the mission ‘Titan II SLV | NOAA 16’, on board a Titan II SLV space rocket.

The launch took place on Sept. 21, 2000, 10:22 a.m. from Space Launch Complex 4W.

For more information about the launch, click the button.

Launch to space Titan II SLV | NOAA 16
Titan II SLV | NOAA 16

Agency: N/A

Status: Launch Successful

Launch date: Sept. 21, 2000, 10:22 a.m. UTC

Rocket: Titan II SLV

Launch pad: Space Launch Complex 4W

Location: Vandenberg SFB, CA, USA

...

Latest news about this satellite

There are no fresh news available about this satellite. Check back as we update our databases every day.


Newsletter sign-up

Weekly statistics, charts and insights to help you stay on top of the space industry.